RYR50QH LIRP-LIEE

Flight info

Callsign RYR50QH
Flight time 1h 25m
Altitude 39000
Route DOCME M729 ELB DCT NEMIT DCT BATOX DCT ALEDI M126 LEDRO
Aircraft B737/M-SDE2E3FGHIRWXY/LB1

Departure

Time 2026-04-29 15:42
Airport Pisa International Airport (LIRP)

Arrival

Time 2026-04-29 17:07
Airport Cagliari Elmas Airport (LIEE)
Time Latitude Longitude Altitude Speed Heading
2026-04-29 15:21 43.69674 10.39703 14 ft 0 kts 325°
2026-04-29 15:38 43.69678 10.39702 14 ft 1 kts 352°
2026-04-29 15:38 43.69683 10.39745 14 ft 8 kts 98°
2026-04-29 15:38 43.69691 10.39821 16 ft 8 kts 62°
2026-04-29 15:39 43.69696 10.39898 14 ft 8 kts 106°
2026-04-29 15:39 43.69680 10.39980 14 ft 11 kts 105°
2026-04-29 15:39 43.69619 10.40061 16 ft 16 kts 173°
2026-04-29 15:39 43.69502 10.40080 17 ft 17 kts 170°
2026-04-29 15:40 43.69391 10.40111 22 ft 15 kts 151°
2026-04-29 15:40 43.69324 10.40226 17 ft 17 kts 127°
2026-04-29 15:40 43.69253 10.40327 19 ft 11 kts 186°
2026-04-29 15:40 43.69226 10.40301 20 ft 0 kts 218°
2026-04-29 15:41 43.69222 10.40296 20 ft 6 kts 218°
2026-04-29 15:41 43.69002 10.40072 18 ft 76 kts 217°
2026-04-29 15:41 43.68402 10.39451 20 ft 137 kts 219°
2026-04-29 15:42 43.67569 10.38489 218 ft 167 kts 223°
2026-04-29 15:42 43.66690 10.37483 1067 ft 165 kts 218°
2026-04-29 15:42 43.65742 10.36541 1738 ft 164 kts 214°
2026-04-29 15:42 43.64842 10.35684 2877 ft 157 kts 213°
2026-04-29 15:43 43.63909 10.34808 3998 ft 168 kts 214°
2026-04-29 15:43 43.62993 10.33789 5204 ft 174 kts 217°
2026-04-29 15:43 43.61890 10.32803 5809 ft 203 kts 202°
2026-04-29 15:43 43.60467 10.32063 6135 ft 235 kts 199°
2026-04-29 15:44 43.58877 10.31276 6758 ft 248 kts 200°
2026-04-29 15:44 43.57244 10.30469 7685 ft 247 kts 200°
2026-04-29 15:44 43.55600 10.29651 8528 ft 251 kts 201°
2026-04-29 15:44 43.53952 10.28827 9396 ft 255 kts 202°
2026-04-29 15:45 43.52284 10.27990 10145 ft 260 kts 202°
2026-04-29 15:45 43.50573 10.27130 10920 ft 262 kts 202°
2026-04-29 15:45 43.48848 10.26261 11675 ft 265 kts 202°
2026-04-29 15:45 43.47099 10.25379 12429 ft 269 kts 202°
2026-04-29 15:46 43.45328 10.24486 13181 ft 272 kts 203°
2026-04-29 15:46 43.43534 10.23581 13902 ft 277 kts 203°
2026-04-29 15:46 43.41732 10.22672 14517 ft 284 kts 203°
2026-04-29 15:46 43.39792 10.21690 14928 ft 304 kts 203°
2026-04-29 15:47 43.37774 10.20673 15679 ft 312 kts 203°
2026-04-29 15:47 43.35723 10.19641 16508 ft 317 kts 202°
2026-04-29 15:47 43.33635 10.18591 17344 ft 322 kts 203°
2026-04-29 15:47 43.31513 10.17525 18183 ft 327 kts 203°
2026-04-29 15:48 43.29362 10.16445 18919 ft 332 kts 203°
2026-04-29 15:48 43.27180 10.15350 19680 ft 335 kts 203°
2026-04-29 15:48 43.24978 10.14246 20444 ft 339 kts 203°
2026-04-29 15:48 43.22776 10.13141 21188 ft 343 kts 203°
2026-04-29 15:49 43.20517 10.12009 21927 ft 347 kts 203°
2026-04-29 15:49 43.18231 10.10865 22656 ft 352 kts 203°
2026-04-29 15:49 43.15904 10.09770 23407 ft 357 kts 195°
2026-04-29 15:49 43.13385 10.09633 24004 ft 369 kts 173°
2026-04-29 15:50 43.10904 10.10765 24124 ft 394 kts 154°
2026-04-29 15:50 43.08439 10.12609 24269 ft 412 kts 152°
2026-04-29 15:50 43.05896 10.14607 24393 ft 429 kts 151°
2026-04-29 15:50 43.03255 10.16695 24510 ft 444 kts 152°
2026-04-29 15:51 43.00536 10.18821 24842 ft 452 kts 152°
2026-04-29 15:51 42.97823 10.20916 25347 ft 454 kts 152°
2026-04-29 15:51 42.95047 10.23036 25896 ft 455 kts 153°
2026-04-29 15:51 42.92262 10.25148 26396 ft 458 kts 153°
2026-04-29 15:52 42.89489 10.27244 26846 ft 461 kts 153°
2026-04-29 15:52 42.86658 10.29381 27287 ft 465 kts 153°
2026-04-29 15:52 42.83817 10.31525 27725 ft 468 kts 153°
2026-04-29 15:52 42.80952 10.33686 28160 ft 471 kts 153°
2026-04-29 15:53 42.78118 10.35822 28575 ft 473 kts 153°
2026-04-29 15:53 42.75116 10.37648 28931 ft 472 kts 167°
2026-04-29 15:53 42.71887 10.38374 29362 ft 468 kts 181°
2026-04-29 15:53 42.68650 10.38089 29780 ft 464 kts 194°
2026-04-29 15:54 42.65536 10.36955 30184 ft 463 kts 199°
2026-04-29 15:54 42.62446 10.35713 30620 ft 462 kts 200°
2026-04-29 15:54 42.59369 10.34480 31123 ft 460 kts 199°
2026-04-29 15:54 42.56301 10.33279 31633 ft 457 kts 199°
2026-04-29 15:55 42.53244 10.32110 32057 ft 457 kts 199°
2026-04-29 15:55 42.50213 10.30967 32419 ft 457 kts 198°
2026-04-29 15:55 42.47148 10.29820 32865 ft 455 kts 198°
2026-04-29 15:55 42.44099 10.28681 33357 ft 453 kts 199°
2026-04-29 15:56 42.41071 10.27549 33826 ft 450 kts 199°
2026-04-29 15:56 42.38059 10.26424 34207 ft 449 kts 198°
2026-04-29 15:56 42.34986 10.25564 34480 ft 454 kts 189°
2026-04-29 15:56 42.31832 10.25215 34759 ft 455 kts 187°
2026-04-29 15:57 42.28670 10.24957 35063 ft 455 kts 186°
2026-04-29 15:57 42.26570 10.24801 35264 ft 455 kts 186°
2026-04-29 15:57 42.22382 10.24486 35644 ft 454 kts 187°
2026-04-29 15:57 42.19231 10.24234 35933 ft 454 kts 187°
2026-04-29 15:58 42.16066 10.23968 36010 ft 458 kts 187°
2026-04-29 15:58 42.10785 10.23504 35998 ft 455 kts 187°
2026-04-29 15:59 42.04525 10.22946 36014 ft 448 kts 187°
2026-04-29 15:59 41.98296 10.22387 36023 ft 448 kts 187°
2026-04-29 16:00 41.92077 10.21830 36019 ft 447 kts 187°
2026-04-29 16:00 41.85862 10.21277 36019 ft 447 kts 187°
2026-04-29 16:01 41.79686 10.20729 36021 ft 447 kts 187°
2026-04-29 16:01 41.73466 10.20178 36013 ft 447 kts 187°
2026-04-29 16:02 41.67252 10.19629 36011 ft 447 kts 187°
2026-04-29 16:02 41.61048 10.19082 36011 ft 446 kts 187°
2026-04-29 16:03 41.54844 10.18536 36008 ft 446 kts 187°
2026-04-29 16:03 41.48661 10.17993 36005 ft 445 kts 187°
2026-04-29 16:04 41.42479 10.17450 36004 ft 445 kts 187°
2026-04-29 16:04 41.36310 10.16910 36002 ft 444 kts 187°
2026-04-29 16:05 41.30149 10.16372 35996 ft 443 kts 187°
2026-04-29 16:05 41.23983 10.15834 36001 ft 443 kts 187°
2026-04-29 16:06 41.17876 10.15276 35999 ft 443 kts 187°
2026-04-29 16:06 41.11732 10.14635 35995 ft 443 kts 187°
2026-04-29 16:07 41.05587 10.13986 35993 ft 443 kts 188°
2026-04-29 16:07 40.99446 10.13347 35991 ft 443 kts 187°
2026-04-29 16:08 40.93298 10.12714 35990 ft 443 kts 187°
2026-04-29 16:08 40.87150 10.12084 35986 ft 442 kts 187°
2026-04-29 16:09 40.81043 10.11459 35985 ft 442 kts 187°
2026-04-29 16:09 40.74912 10.10833 35986 ft 442 kts 187°
2026-04-29 16:10 40.68777 10.10207 35978 ft 442 kts 187°
2026-04-29 16:10 40.62650 10.09584 35987 ft 441 kts 187°
2026-04-29 16:11 40.56525 10.08961 35989 ft 441 kts 187°
2026-04-29 16:11 40.50396 10.08339 35989 ft 441 kts 187°
2026-04-29 16:12 40.44264 10.07719 35981 ft 442 kts 188°
2026-04-29 16:12 40.38179 10.07104 35990 ft 442 kts 188°
2026-04-29 16:13 40.32040 10.06485 35992 ft 442 kts 188°
2026-04-29 16:13 40.25905 10.05867 35991 ft 442 kts 188°
2026-04-29 16:14 40.19766 10.05250 35995 ft 442 kts 188°
2026-04-29 16:14 40.13628 10.04634 35995 ft 442 kts 188°
2026-04-29 16:15 40.07495 10.04020 35992 ft 442 kts 188°
2026-04-29 16:15 40.01394 10.03411 35994 ft 442 kts 188°
2026-04-29 16:15 39.98326 10.03104 35891 ft 443 kts 188°
2026-04-29 16:16 39.95215 10.02792 35191 ft 449 kts 188°
2026-04-29 16:16 39.92103 10.02482 34459 ft 448 kts 187°
2026-04-29 16:16 39.88993 10.02173 33621 ft 448 kts 187°
2026-04-29 16:16 39.85884 10.01864 32706 ft 449 kts 187°
2026-04-29 16:17 39.82770 10.01555 31818 ft 449 kts 186°
2026-04-29 16:17 39.79650 10.01245 30882 ft 450 kts 186°
2026-04-29 16:17 39.76519 10.00935 29914 ft 452 kts 185°
2026-04-29 16:17 39.73395 10.00626 29122 ft 446 kts 186°
2026-04-29 16:18 39.70318 10.00322 28392 ft 440 kts 186°
2026-04-29 16:18 39.67283 10.00022 27696 ft 434 kts 186°
2026-04-29 16:18 39.64304 9.99643 26983 ft 428 kts 192°
2026-04-29 16:18 39.61458 9.98638 26322 ft 421 kts 201°
2026-04-29 16:19 39.58785 9.97097 25326 ft 422 kts 210°
2026-04-29 16:19 39.56351 9.95008 24581 ft 418 kts 218°
2026-04-29 16:19 39.54047 9.92735 23860 ft 414 kts 219°
2026-04-29 16:19 39.51805 9.90493 23099 ft 410 kts 219°
2026-04-29 16:20 39.49558 9.88252 22350 ft 406 kts 219°
2026-04-29 16:20 39.47331 9.86049 21669 ft 400 kts 218°
2026-04-29 16:20 39.45131 9.83887 20979 ft 395 kts 218°
2026-04-29 16:20 39.42947 9.81751 20312 ft 391 kts 218°
2026-04-29 16:21 39.40789 9.79646 19656 ft 387 kts 218°
2026-04-29 16:21 39.38646 9.77559 19004 ft 384 kts 218°
2026-04-29 16:21 39.36519 9.75490 18361 ft 381 kts 218°
2026-04-29 16:21 39.34411 9.73440 17627 ft 378 kts 218°
2026-04-29 16:22 39.32315 9.71402 16927 ft 375 kts 218°
2026-04-29 16:22 39.30238 9.69387 16265 ft 371 kts 218°
2026-04-29 16:22 39.28183 9.67393 15612 ft 368 kts 218°
2026-04-29 16:22 39.26145 9.65410 14963 ft 365 kts 218°
2026-04-29 16:23 39.24125 9.63441 14321 ft 363 kts 218°
2026-04-29 16:23 39.22111 9.61478 13662 ft 361 kts 218°
2026-04-29 16:23 39.20137 9.59554 12976 ft 359 kts 218°
2026-04-29 16:23 39.18156 9.57626 12315 ft 355 kts 218°
2026-04-29 16:24 39.16163 9.55687 11670 ft 352 kts 218°
2026-04-29 16:24 39.14243 9.53821 11054 ft 349 kts 218°
2026-04-29 16:24 39.12316 9.51951 10630 ft 341 kts 218°
2026-04-29 16:24 39.10464 9.50156 10475 ft 326 kts 218°
2026-04-29 16:25 39.08696 9.48442 10383 ft 311 kts 218°
2026-04-29 16:25 39.06988 9.46788 10353 ft 302 kts 218°
2026-04-29 16:25 39.05316 9.45177 10353 ft 299 kts 218°
2026-04-29 16:25 39.03615 9.43549 10375 ft 316 kts 218°
2026-04-29 16:26 39.01791 9.41802 10362 ft 328 kts 218°
2026-04-29 16:26 39.00000 9.40091 10339 ft 313 kts 218°
2026-04-29 16:26 38.98277 9.38451 10328 ft 304 kts 218°
2026-04-29 16:26 38.96592 9.36851 10323 ft 301 kts 218°
2026-04-29 16:27 38.94865 9.35213 10353 ft 321 kts 218°
2026-04-29 16:27 38.92982 9.33421 10332 ft 349 kts 218°
2026-04-29 16:27 38.91029 9.31564 10069 ft 349 kts 218°
2026-04-29 16:27 38.89089 9.29719 9826 ft 345 kts 218°
2026-04-29 16:28 38.87188 9.27912 9550 ft 333 kts 218°
2026-04-29 16:28 38.85361 9.26177 9279 ft 320 kts 218°
2026-04-29 16:28 38.83606 9.24511 9012 ft 309 kts 218°
2026-04-29 16:28 38.81908 9.22900 8749 ft 299 kts 218°
2026-04-29 16:29 38.80266 9.21341 8487 ft 290 kts 218°
2026-04-29 16:29 38.78672 9.19819 8231 ft 282 kts 218°
2026-04-29 16:29 38.77118 9.18338 7978 ft 275 kts 219°
2026-04-29 16:29 38.75598 9.16895 7724 ft 270 kts 218°
2026-04-29 16:30 38.74114 9.15496 7481 ft 267 kts 218°
2026-04-29 16:30 38.72631 9.14086 7241 ft 264 kts 218°
2026-04-29 16:30 38.71158 9.12681 6995 ft 264 kts 218°
2026-04-29 16:30 38.70185 9.11746 6840 ft 263 kts 218°
2026-04-29 16:53 38.68938 9.10091 6580 ft 262 kts 244°
2026-04-29 16:53 38.68618 9.07849 6350 ft 259 kts 279°
2026-04-29 16:54 38.69373 9.05796 6107 ft 260 kts 313°
2026-04-29 16:54 38.70835 9.04447 5890 ft 260 kts 330°
2026-04-29 16:54 38.72568 9.03733 5643 ft 267 kts 348°
2026-04-29 16:54 38.74513 9.03299 5436 ft 298 kts 350°
2026-04-29 16:55 38.76605 9.02862 5195 ft 307 kts 350°
2026-04-29 16:55 38.78721 9.02420 4949 ft 309 kts 350°
2026-04-29 16:55 38.80822 9.01982 4707 ft 309 kts 350°
2026-04-29 16:55 38.82941 9.01537 4447 ft 308 kts 350°
2026-04-29 16:56 38.85055 9.01086 4191 ft 308 kts 350°
2026-04-29 16:56 38.87171 9.00627 3958 ft 308 kts 350°
2026-04-29 16:56 38.89288 9.00153 3712 ft 309 kts 350°
2026-04-29 16:56 38.91412 8.99666 3455 ft 310 kts 350°
2026-04-29 16:57 38.93541 8.99169 3234 ft 311 kts 351°
2026-04-29 16:57 38.95660 8.98660 3045 ft 307 kts 350°
2026-04-29 16:57 38.97816 8.98136 3026 ft 320 kts 350°
2026-04-29 16:57 38.99999 8.97598 2995 ft 317 kts 350°
2026-04-29 16:58 39.02083 8.97090 2965 ft 299 kts 350°
2026-04-29 16:58 39.04058 8.96625 2966 ft 280 kts 350°
2026-04-29 16:58 39.05923 8.96189 2972 ft 264 kts 351°
2026-04-29 16:58 39.07677 8.95781 2995 ft 250 kts 350°
2026-04-29 16:59 39.09403 8.95427 2999 ft 250 kts 358°
2026-04-29 16:59 39.11134 8.95486 2974 ft 250 kts
2026-04-29 16:59 39.12860 8.95599 2796 ft 245 kts
2026-04-29 16:59 39.14536 8.95711 2675 ft 239 kts
2026-04-29 17:00 39.16189 8.95815 2559 ft 238 kts
2026-04-29 17:00 39.17843 8.95908 2446 ft 237 kts
2026-04-29 17:00 39.19488 8.96018 2299 ft 235 kts
2026-04-29 17:00 39.21086 8.96112 2180 ft 229 kts
2026-04-29 17:01 39.22646 8.96198 2072 ft 218 kts
2026-04-29 17:01 39.24105 8.96087 2002 ft 203 kts 348°
2026-04-29 17:01 39.25320 8.95194 2029 ft 202 kts 322°
2026-04-29 17:01 39.26445 8.94113 2016 ft 198 kts 324°
2026-04-29 17:02 39.27547 8.93074 1973 ft 195 kts 324°
2026-04-29 17:02 39.28662 8.92025 1975 ft 201 kts 324°
2026-04-29 17:02 39.29796 8.90956 1978 ft 202 kts 324°
2026-04-29 17:02 39.30924 8.89889 1958 ft 200 kts 324°
2026-04-29 17:03 39.32035 8.88844 1957 ft 200 kts 324°
2026-04-29 17:03 39.33248 8.88021 1946 ft 198 kts 354°
2026-04-29 17:03 39.34511 8.88464 1966 ft 188 kts 45°
2026-04-29 17:03 39.35394 8.89684 1968 ft 188 kts 51°
2026-04-29 17:04 39.36006 8.91122 1940 ft 182 kts 88°
2026-04-29 17:04 39.35665 8.92587 1993 ft 173 kts 124°
2026-04-29 17:04 39.34925 8.93827 1965 ft 174 kts 131°
2026-04-29 17:04 39.34093 8.94974 1973 ft 175 kts 135°
2026-04-29 17:05 39.33203 8.96068 1871 ft 179 kts 136°
2026-04-29 17:05 39.32283 8.97152 1650 ft 179 kts 136°
2026-04-29 17:05 39.31362 8.98224 1416 ft 178 kts 137°
2026-04-29 17:05 39.30450 8.99281 1190 ft 177 kts 138°
2026-04-29 17:06 39.29548 9.00326 1002 ft 166 kts 139°
2026-04-29 17:06 39.28729 9.01275 766 ft 152 kts 139°
2026-04-29 17:06 39.27977 9.02146 562 ft 137 kts 140°
2026-04-29 17:06 39.27301 9.02931 387 ft 125 kts 141°
2026-04-29 17:07 39.26644 9.03709 205 ft 131 kts 143°
2026-04-29 17:07 39.25965 9.04484 31 ft 132 kts 143°
2026-04-29 17:07 39.25361 9.05181 13 ft 91 kts 137°
2026-04-29 17:07 39.25058 9.05537 15 ft 17 kts 139°
2026-04-29 17:08 39.25069 9.05650 15 ft 14 kts 60°
2026-04-29 17:08 39.25113 9.05760 16 ft 13 kts 66°
2026-04-29 17:08 39.25169 9.05848 14 ft 13 kts 20°
2026-04-29 17:08 39.25239 9.05786 16 ft 13 kts 312°
2026-04-29 17:09 39.25303 9.05710 14 ft 12 kts 320°
2026-04-29 17:09 39.25374 9.05747 14 ft 13 kts 53°
2026-04-29 17:09 39.25415 9.05825 14 ft 5 kts 93°
2026-04-29 17:09 39.25389 9.05859 14 ft 6 kts 143°
2026-04-29 17:10 39.25361 9.05886 14 ft 0 kts 139°